Torna al catalogo

STARLINK-33913

AttivoComunicazioniVLEO
NORAD 65215·PAYLOAD·🇺🇸 United States

Lanciato Aug 14, 2025 da Cape Canaveral Space Force Station

Loading…

Prossimi Passaggi (prossime 24 ore)

TLE

AggiornatoSource: CelesTrak SupGP

Epoca: Sep 14, 2026, 21:34 UTC

1 65215C 25176T   26257.89909722 -.00009953  00000+0 -29409-3 0  2579
2 65215  53.1592 352.0779 0001145  79.5888 313.0922 15.34393908    11

Traccia STARLINK-33913 in tempo reale con AllMySat

Download on the App Store